EW0890 Weather Reports


Display with metric or nautical units.
time (UTC)temp
F
wind
direction
speed
MPH
gust
MPH
rain 1hr
in
rain 24hr
in
rain mn
in
humidity
%
barometer
mb
20260503213504 66 238 18.0 23.0 0.00 0.00 0.00 44 1008.2
20260503213010 65 239 18.0 26.0 0.00 0.00 0.00 44 1008.3
20260503212506 65 239 19.0 26.0 0.00 0.00 0.00 43 1008.5
20260503212004 66 229 20.0 27.0 0.00 0.00 0.00 43 1008.5
20260503211515 66 223 21.0 28.0 0.00 0.00 0.00 42 1008.5
20260503211003 66 233 21.0 28.0 0.00 0.00 0.00 42 1008.4
20260503210502 66 224 21.0 28.0 0.00 0.00 0.00 43 1008.4
20260503210010 66 221 21.0 28.0 0.00 0.00 0.00 45 1008.5
20260503205506 65 227 22.0 27.0 0.00 0.00 0.00 45 1008.5
20260503205007 65 223 19.0 33.0 0.00 0.00 0.00 46 1008.8
20260503204512 65 222 22.0 33.0 0.00 0.00 0.00 45 1009.0
20260503204005 65 234 22.0 28.0 0.00 0.00 0.00 44 1008.9
20260503203504 65 212 17.0 32.0 0.00 0.00 0.00 46 1009.0
20260503203019 65 226 23.0 33.0 0.00 0.00 0.00 45 1009.1
20260503202503 66 209 24.0 33.0 0.00 0.00 0.00 44 1009.4
20260503202006 66 227 26.0 33.0 0.00 0.00 0.00 43 1009.4
20260503201514 66 227 21.0 32.0 0.00 0.00 0.00 43 1009.4
20260503201002 66 222 22.0 33.0 0.00 0.00 0.00 45 1009.4
20260503200503 65 200 24.0 33.0 0.00 0.00 0.00 44 1009.3
20260503200004 66 228 25.0 36.0 0.00 0.00 0.00 42 1009.4
20260503195503 66 230 28.0 36.0 0.00 0.00 0.00 42 1009.5
20260503195005 65 198 24.0 36.0 0.00 0.00 0.00 44 1009.5
20260503194514 66 220 23.0 36.0 0.00 0.00 0.00 45 1009.4
20260503194003 65 210 25.0 33.0 0.00 0.00 0.00 45 1009.7
20260503193506 65 216 25.0 33.0 0.00 0.00 0.00 45 1009.8
20260503193018 65 208 26.0 33.0 0.00 0.00 0.00 44 1009.7
20260503192503 65 233 23.0 34.0 0.00 0.00 0.00 45 1009.8
20260503192003 65 210 26.0 34.0 0.00 0.00 0.00 45 1009.8
20260503191512 65 207 25.0 33.0 0.00 0.00 0.00 45 1009.8
20260503191003 64 204 22.0 33.0 0.00 0.00 0.00 46 1009.9
20260503190502 64 178 24.0 32.0 0.00 0.00 0.00 46 1009.9
20260503190006 64 207 22.0 36.0 0.00 0.00 0.00 47 1010.0
20260503185502 63 219 24.0 36.0 0.00 0.00 0.00 46 1010.2
20260503185003 63 215 28.0 36.0 0.00 0.00 0.00 44 1010.3
20260503184508 63 223 21.0 32.0 0.00 0.00 0.00 48 1010.7
20260503184005 62 219 22.0 32.0 0.00 0.00 0.00 46 1011.0
20260503183504 62 224 22.0 32.0 0.00 0.00 0.00 47 1011.0
20260503183013 62 220 21.0 31.0 0.00 0.00 0.00 48 1011.2
20260503182503 61 201 21.0 28.0 0.00 0.00 0.00 47 1011.3
20260503182004 61 211 22.0 30.0 0.00 0.00 0.00 47 1011.6
20260503181517 61 224 24.0 30.0 0.00 0.00 0.00 46 1011.8
20260503181004 61 233 22.0 28.0 0.00 0.00 0.00 46 1012.0
20260503180505 62 224 20.0 29.0 0.00 0.00 0.00 46 1012.1
20260503180026 62 224 23.0 29.0 0.00 0.00 0.00 45 1012.1
20260503175504 62 227 20.0 26.0 0.00 0.00 0.00 47 1012.3
20260503175003 61 226 21.0 26.0 0.00 0.00 0.00 46 1012.5
20260503174513 61 245 19.0 26.0 0.00 0.00 0.00 48 1012.7
20260503174004 61 224 21.0 26.0 0.00 0.00 0.00 47 1012.9
20260503173503 61 215 17.0 26.0 0.00 0.00 0.00 48 1013.3
20260503173018 61 207 19.0 26.0 0.00 0.00 0.00 47 1013.2
20260503172504 61 236 18.0 24.0 0.00 0.00 0.00 49 1013.2
20260503172003 60 228 18.0 26.0 0.00 0.00 0.00 48 1013.1
20260503171512 60 224 19.0 26.0 0.00 0.00 0.00 47 1013.0
20260503171006 60 231 20.0 26.0 0.00 0.00 0.00 47 1013.1
20260503170506 60 220 20.0 25.0 0.00 0.00 0.00 47 1013.1
20260503150503 55 226 19.0 23.0 0.00 0.00 0.00 61 1015.1
20260503131005 50 224 16.0 20.0 0.00 0.00 0.00 72 1016.1
20260503130505 50 218 16.0 20.0 0.00 0.00 0.00 71 1015.9
20260503110507 44 205 12.0 16.0 0.00 0.00 0.00 75 1015.9
20260503090503 43 206 10.0 14.0 0.00 0.00 0.00 71 1016.4
20260503081518 43 221 11.0 13.0 0.00 0.00 0.00 67 1016.5
20260503081003 43 218 9.0 13.0 0.00 0.00 0.00 67 1016.6
20260503080503 43 218 10.0 13.0 0.00 0.00 0.00 66 1016.5
20260503072510 44 226 9.0 13.0 0.00 0.00 0.00 63 1016.5
20260503072008 44 205 10.0 13.0 0.00 0.00 0.00 62 1016.5
20260503071526 44 210 9.0 13.0 0.00 0.00 0.00 63 1016.6
20260503071008 44 216 9.0 12.0 0.00 0.00 0.00 63 1016.6
20260503070511 44 220 9.0 12.0 0.00 0.00 0.00 63 1016.6
20260503055011 44 211 6.0 10.0 0.00 0.00 0.00 63 1017.3
20260503054003 44 205 7.0 10.0 0.00 0.00 0.00 63 1017.4
20260503053504 45 220 8.0 10.0 0.00 0.00 0.00 63 1017.4
20260503052506 44 209 7.0 9.0 0.00 0.00 0.00 63 1017.5
20260503052008 44 208 6.0 9.0 0.00 0.00 0.00 63 1017.5
20260503051007 44 216 7.0 9.0 0.00 0.00 0.00 63 1017.5
20260503050507 44 217 7.0 9.0 0.00 0.00 0.00 64 1017.5
20260503050024 44 214 7.0 9.0 0.00 0.00 0.00 64 1017.5
20260503045509 44 224 7.0 9.0 0.00 0.00 0.00 64 1017.5
20260503045007 44 226 6.0 9.0 0.00 0.00 0.00 65 1017.5
20260503044529 44 225 7.0 9.0 0.00 0.00 0.00 65 1017.4
20260503044011 44 226 6.0 8.0 0.00 0.00 0.00 66 1017.5
20260503043510 44 228 7.0 8.0 0.00 0.00 0.00 65 1017.5
20260503043025 44 224 6.0 8.0 0.00 0.00 0.00 65 1017.5
20260503042504 45 231 6.0 8.0 0.00 0.00 0.00 65 1017.4
20260503042004 45 216 6.0 8.0 0.00 0.00 0.00 64 1017.5
20260503041520 45 215 6.0 8.0 0.00 0.00 0.00 63 1017.5
20260503041004 45 228 6.0 8.0 0.00 0.00 0.00 63 1017.5
20260503040504 45 217 6.0 8.0 0.00 0.00 0.00 63 1017.7
20260503040029 45 223 5.0 7.0 0.00 0.00 0.00 63 1017.7
20260503035505 45 228 5.0 7.0 0.00 0.00 0.00 64 1017.6
20260503035006 45 226 5.0 6.0 0.00 0.00 0.00 64 1017.6
20260503034526 45 221 5.0 6.0 0.00 0.00 0.00 65 1017.6
20260503034012 45 217 4.0 5.0 0.00 0.00 0.00 66 1017.6
20260503033509 45 224 3.0 6.0 0.00 0.00 0.00 65 1017.7
20260503033038 45 219 5.0 6.0 0.00 0.00 0.00 64 1017.8
20260503032511 45 226 5.0 6.0 0.00 0.00 0.00 64 1017.8
20260503032010 45 226 4.0 5.0 0.00 0.00 0.00 65 1017.9
20260503031535 45 228 4.0 5.0 0.00 0.00 0.00 66 1017.8
20260503031006 44 214 4.0 5.0 0.00 0.00 0.00 67 1017.9
20260503030504 44 215 4.0 5.0 0.00 0.00 0.00 69 1018.0
20260503030024 44 206 3.0 4.0 0.00 0.00 0.00 69 1017.9
20260503025506 44 211 3.0 4.0 0.00 0.00 0.00 68 1017.9
20260503025007 45 209 3.0 4.0 0.00 0.00 0.00 66 1017.9
20260503024523 45 214 3.0 4.0 0.00 0.00 0.00 65 1017.9
20260503024006 45 217 3.0 3.0 0.00 0.00 0.00 65 1018.0
20260503023510 45 220 2.0 4.0 0.00 0.00 0.00 67 1017.9
20260503023041 45 219 2.0 4.0 0.00 0.00 0.00 65 1018.0
20260503022509 45 221 3.0 3.0 0.00 0.00 0.00 64 1018.0
20260503022016 45 228 2.0 3.0 0.00 0.00 0.00 64 1018.0
20260503021525 45 228 3.0 3.0 0.00 0.00 0.00 63 1017.9
20260503021010 45 226 2.0 3.0 0.00 0.00 0.00 65 1017.9
20260503020512 45 229 2.0 3.0 0.00 0.00 0.00 66 1017.9
20260503020028 45 235 2.0 2.0 0.00 0.00 0.00 66 1017.7
20260503015508 46 233 2.0 3.0 0.00 0.00 0.00 64 1017.5
20260503015010 46 245 2.0 3.0 0.00 0.00 0.00 65 1017.4
20260503014520 46 240 2.0 3.0 0.00 0.00 0.00 65 1017.3
20260503014003 47 242 1.0 2.0 0.00 0.00 0.00 64 1017.3
20260503013503 47 244 2.0 3.0 0.00 0.00 0.00 63 1017.4
20260503013003 47 257 1.0 3.0 0.00 0.00 0.00 63 1017.4
20260503012503 47 260 2.0 3.0 0.00 0.00 0.00 61 1017.4
20260503012004 48 260 2.0 3.0 0.00 0.00 0.00 62 1017.3
20260503011507 48 263 2.0 3.0 0.00 0.00 0.00 59 1017.3
20260503011003 49 266 2.0 3.0 0.00 0.00 0.00 56 1017.3
20260503010504 50 269 2.0 3.0 0.00 0.00 0.00 53 1017.4
20260503010014 51 261 2.0 4.0 0.00 0.00 0.00 50 1017.4
20260503005504 52 285 3.0 4.0 0.00 0.00 0.00 43 1017.5
20260503005007 52 278 2.0 3.0 0.00 0.00 0.00 44 1017.4
20260503004515 53 276 0.0 1.0 0.00 0.00 0.00 45 1017.4
20260503004004 54 274 0.0 1.0 0.00 0.00 0.00 42 1017.4
20260503003507 55 274 0.0 3.0 0.00 0.00 0.00 41 1017.3
20260503003022 56 275 0.0 3.0 0.00 0.00 0.00 40 1017.3
20260503002506 56 286 0.0 4.0 0.00 0.00 0.00 39 1017.3
20260503002003 55 281 0.0 6.0 0.00 0.00 0.00 37 1017.3
20260503001505 55 278 4.0 6.0 0.00 0.00 0.00 35 1017.3
20260503001004 56 278 4.0 6.0 0.00 0.00 0.00 35 1017.3
20260503000503 56 290 3.0 4.0 0.00 0.00 0.00 35 1017.3
20260503000015 56 275 0.0 5.0 0.00 0.00 0.00 37 1017.3
20260502235504 56 305 1.0 5.0 0.00 0.00 0.00 36 1017.3
20260502235004 57 342 1.0 5.0 0.00 0.00 0.00 35 1017.3
20260502234514 57 309 1.0 5.0 0.00 0.00 0.00 35 1017.3
20260502234004 57 298 2.0 8.0 0.00 0.00 0.00 35 1017.3
20260502233506 57 285 3.0 8.0 0.00 0.00 0.00 34 1017.3
20260502233020 57 292 1.0 5.0 0.00 0.00 0.00 36 1017.4
20260502232507 57 348 0.0 2.0 0.00 0.00 0.00 36 1017.4
20260502232007 56 356 0.0 3.0 0.00 0.00 0.00 37 1017.5
20260502231523 56 290 0.0 3.0 0.00 0.00 0.00 36 1017.5
20260502231004 55 354 0.0 3.0 0.00 0.00 0.00 39 1017.5
20260502230504 55 32 0.0 3.0 0.00 0.00 0.00 38 1017.5
20260502230009 55 276 1.0 2.0 0.00 0.00 0.00 38 1017.6
20260502225503 55 228 1.0 2.0 0.00 0.00 0.00 39 1017.6
20260502225004 56 269 1.0 4.0 0.00 0.00 0.00 38 1017.6
20260502224509 56 67 2.0 4.0 0.00 0.00 0.00 38 1017.6
20260502224005 55 256 1.0 2.0 0.00 0.00 0.00 37 1017.7
20260502223505 56 323 1.0 4.0 0.00 0.00 0.00 38 1017.7
20260502223014 56 286 0.0 5.0 0.00 0.00 0.00 37 1017.7
20260502222505 57 323 2.0 5.0 0.00 0.00 0.00 35 1017.6
20260502222005 58 296 1.0 4.0 0.00 0.00 0.00 35 1017.6
20260502221519 57 254 0.0 5.0 0.00 0.00 0.00 36 1017.6
20260502221007 57 330 2.0 6.0 0.00 0.00 0.00 37 1017.6
20260502220509 58 268 3.0 10.0 0.00 0.00 0.00 37 1017.7
20260502220023 57 314 3.0 13.0 0.00 0.00 0.00 36 1017.7
20260502215505 57 273 5.0 13.0 0.00 0.00 0.00 35 1017.8
20260502215005 57 277 7.0 13.0 0.00 0.00 0.00 34 1017.8
20260502214509 57 328 1.0 13.0 0.00 0.00 0.00 37 1017.7
20260502214004 57 278 5.0 12.0 0.00 0.00 0.00 35 1017.7